QPF
0.02 0.01 0.01 0.01 0.00 0.00 0.01 0.02 0.05 0.07 0.10 0.09 0.05 0.03 0.04 0.05 0.07 0.10 0.13 0.13 0.13 0.14 0.14 0.11 0.10 0.10 0.12 0.12 0.11 0.10 0.09 0.10 0.11 0.11 0.09 0.07 0.06 0.05 0.04 0.03 0.02 0.03 0.02 0.02
0.01 0.00 0.00 0.01 0.01 0.01 0.01 0.01 0.03 0.06 0.08 0.07 0.04 0.03 0.04 0.03 0.05 0.08 0.10 0.11 0.10 0.11 0.13 0.11 0.11 0.10 0.09 0.11 0.11 0.11 0.10 0.10 0.11 0.10 0.08 0.06 0.05 0.04 0.04 0.03 0.03 0.03 0.02 0.01
0.05 0.01 0.02 0.05 0.04 0.03 0.02 0.01 0.03 0.07 0.08 0.05 0.02 0.03 0.05 0.06 0.08 0.09 0.10 0.09 0.09 0.11 0.14 0.12 0.10 0.10 0.09 0.09 0.09 0.09 0.09 0.09 0.08 0.07 0.06 0.05 0.04 0.03 0.03 0.03 0.02 0.01 0.01 0.01
0.05 0.05 0.09 0.07 0.02 0.03 0.02 0.02 0.02 0.03 0.04 0.03 0.03 0.03 0.05 0.08 0.13 0.13 0.12 0.11 0.09 0.11 0.11 0.12 0.11 0.11 0.10 0.09 0.09 0.09 0.07 0.05 0.05 0.04 0.03 0.02 0.03 0.03 0.03 0.03 0.03 0.02 0.01 0.01
0.06 0.09 0.09 0.06 0.02 0.02 0.04 0.04 0.02 0.03 0.02 0.02 0.02 0.03 0.05 0.07 0.11 0.12 0.13 0.12 0.09 0.07 0.07 0.08 0.10 0.11 0.10 0.08 0.08 0.08 0.07 0.05 0.04 0.03 0.03 0.02 0.03 0.03 0.03 0.04 0.03 0.02 0.01 0.01
0.06 0.11 0.12 0.10 0.02 0.01 0.02 0.07 0.03 0.02 0.02 0.02 0.03 0.04 0.04 0.05 0.07 0.08 0.10 0.10 0.08 0.07 0.06 0.07 0.09 0.10 0.08 0.07 0.06 0.06 0.06 0.06 0.04 0.04 0.04 0.03 0.03 0.03 0.03 0.03 0.02 0.02 0.02 0.02
0.06 0.09 0.11 0.07 0.02 0.01 0.06 0.10 0.03 0.02 0.03 0.05 0.08 0.07 0.04 0.03 0.05 0.07 0.09 0.10 0.08 0.07 0.07 0.07 0.06 0.07 0.07 0.06 0.05 0.03 0.02 0.03 0.03 0.03 0.03 0.03 0.03 0.03 0.02 0.03 0.03 0.02 0.02 0.01
0.06 0.09 0.10 0.03 0.01 0.03 0.05 0.03 0.02 0.02 0.03 0.04 0.05 0.04 0.03 0.02 0.03 0.05 0.08 0.09 0.08 0.08 0.07 0.06 0.05 0.06 0.06 0.05 0.03 0.02 0.01 0.02 0.02 0.02 0.01 0.02 0.03 0.03 0.03 0.03 0.03 0.03 0.03 0.02
0.06 0.06 0.04 0.01 0.01 0.01 0.02 0.02 0.02 0.02 0.02 0.02 0.03 0.03 0.03 0.03 0.03 0.04 0.05 0.07 0.08 0.08 0.07 0.06 0.05 0.05 0.05 0.04 0.02 0.02 0.02 0.03 0.03 0.02 0.02 0.03 0.04 0.04 0.03 0.03 0.03 0.03 0.03 0.02
0.01 0.01 0.00 0.01 0.01 0.01 0.01 0.01 0.01 0.02 0.02 0.02 0.03 0.04 0.04 0.03 0.04 0.05 0.06 0.07 0.07 0.07 0.07 0.06 0.05 0.04 0.03 0.02 0.02 0.04 0.04 0.03 0.03 0.04 0.04 0.03 0.03 0.02 0.03 0.03 0.02 0.02 0.01 0.01
0.01 0.01 0.00 0.01 0.01 0.01 0.00 0.01 0.01 0.02 0.02 0.02 0.02 0.03 0.04 0.04 0.04 0.05 0.06 0.07 0.07 0.07 0.05 0.05 0.04 0.03 0.02 0.02 0.03 0.05 0.04 0.03 0.04 0.05 0.04 0.03 0.01 0.01 0.01 0.01 0.01 0.01 0.02 0.02
0.01 0.01 0.00 0.01 0.01 0.01 0.01 0.01 0.01 0.01 0.02 0.02 0.02 0.02 0.03 0.04 0.04 0.05 0.06 0.07 0.07 0.06 0.05 0.04 0.03 0.03 0.02 0.03 0.03 0.04 0.04 0.04 0.04 0.04 0.03 0.02 0.01 0.00 0.00 0.00 0.00 0.00 0.00 0.00
0.00 0.00 0.00 0.00 0.00 0.00 0.00 0.01 0.01 0.01 0.01 0.02 0.02 0.02 0.03 0.05 0.04 0.05 0.05 0.06 0.06 0.05 0.04 0.04 0.04 0.04 0.03 0.02 0.02 0.03 0.04 0.03 0.02 0.02 0.02 0.01 0.00 0.01 0.01 0.00 0.00 0.00 0.00 0.00
0.00 0.00 0.00 0.00 0.00 0.00 0.00 0.01 0.01 0.01 0.01 0.01 0.02 0.04 0.05 0.05 0.04 0.04 0.05 0.05 0.05 0.04 0.04 0.03 0.04 0.03 0.02 0.01 0.01 0.01 0.01 0.01 0.01 0.01 0.01 0.00 0.00 0.00 0.01 0.02 0.02 0.01 0.00 0.00
0.00 0.00 0.00 0.00 0.00 0.00 0.00 0.00 0.01 0.01 0.02 0.02 0.03 0.04 0.05 0.05 0.05 0.04 0.04 0.03 0.03 0.03 0.03 0.03 0.02 0.02 0.01 0.00 0.00 0.01 0.01 0.00 0.00 0.00 0.00 0.00 0.00 0.00 0.00 0.01 0.03 0.04 0.02 0.01
0.00 0.00 0.00 0.00 0.00 0.00 0.00 0.00 0.01 0.01 0.01 0.02 0.03 0.04 0.04 0.04 0.03 0.03 0.03 0.03 0.03 0.03 0.03 0.03 0.02 0.01 0.00 0.00 0.01 0.01 0.01 0.00 0.00 0.00 0.00 0.00 0.00 0.00 0.00 0.01 0.02 0.03 0.03 0.01
0.00 0.00 0.00 0.00 0.00 0.00 0.00 0.00 0.00 0.00 0.01 0.02 0.02 0.03 0.03 0.02 0.02 0.03 0.03 0.03 0.04 0.04 0.03 0.02 0.01 0.00 0.00 0.00 0.01 0.01 0.01 0.00 0.00 0.00 0.00 0.00 0.00 0.00 0.00 0.00 0.01 0.02 0.01 0.00
0.00 0.00 0.00 0.00 0.00 0.00 0.00 0.00 0.00 0.00 0.01 0.01 0.01 0.01 0.01 0.01 0.02 0.03 0.03 0.03 0.03 0.03 0.02 0.01 0.01 0.00 0.00 0.00 0.00 0.00 0.00 0.00 0.00 0.00 0.00 0.00 0.00 0.00 0.00 0.00 0.01 0.01 0.00 0.00
0.00 0.00 0.00 0.00 0.00 0.00 0.00 0.00 0.00 0.00 0.00 0.00 0.00 0.00 0.01 0.01 0.01 0.01 0.01 0.01 0.01 0.02 0.01 0.00 0.00 0.00 0.00 0.00 0.00 0.00 0.00 0.00 0.00 0.00 0.00 0.00 0.00 0.00 0.00 0.00 0.00 0.00 0.00 0.00
0.00 0.00 0.00 0.00 0.00 0.00 0.00 0.00 0.00 0.00 0.00 0.00 0.00 0.00 0.01 0.01 0.00 0.00 0.00 0.00 0.00 0.00 0.00 0.00 0.00 0.00 0.00 0.00 0.00 0.00 0.00 0.00 0.00 0.00 0.00 0.00 0.00 0.00 0.00 0.00 0.00 0.00 0.00 0.00
0.00 0.00 0.00 0.00 0.00 0.00 0.00 0.00 0.00 0.00 0.00 0.00 0.00 0.00 0.00 0.00 0.00 0.00 0.00 0.00 0.00 0.00 0.00 0.00 0.00 0.00 0.00 0.00 0.00 0.00 0.00 0.00 0.00 0.00 0.00 0.00 0.00 0.00 0.00 0.00 0.00 0.00 0.00 0.00
0.00 0.00 0.00 0.00 0.00 0.00 0.00 0.00 0.00 0.00 0.00 0.00 0.00 0.00 0.00 0.00 0.00 0.00 0.00 0.00 0.00 0.00 0.00 0.00 0.00 0.00 0.00 0.00 0.00 0.00 0.00 0.00 0.00 0.00 0.00 0.00 0.00 0.00 0.00 0.00 0.00 0.00 0.00 0.00
0.00 0.00 0.00 0.00 0.00 0.00 0.00 0.00 0.00 0.00 0.00 0.00 0.00 0.00 0.00 0.00 0.00 0.00 0.00 0.00 0.00 0.00 0.00 0.00 0.00 0.00 0.00 0.00 0.00 0.00 0.00 0.00 0.00 0.00 0.00 0.00 0.00 0.00 0.00 0.00 0.00 0.00 0.00 0.00
0.00 0.00 0.00 0.00 0.00 0.00 0.00 0.00 0.00 0.00 0.00 0.00 0.00 0.00 0.00 0.00 0.00 0.00 0.00 0.00 0.00 0.00 0.00 0.00 0.00 0.00 0.00 0.00 0.00 0.00 0.00 0.00 0.00 0.00 0.00 0.00 0.00 0.00 0.00 0.00 0.00 0.00 0.00 0.00
0.00 0.00 0.00 0.00 0.00 0.00 0.00 0.00 0.00 0.00 0.00 0.00 0.00 0.00 0.00 0.00 0.00 0.00 0.00 0.00 0.00 0.00 0.00 0.00 0.00 0.00 0.00 0.00 0.00 0.00 0.00 0.00 0.00 0.00 0.00 0.00 0.00 0.00 0.00 0.00 0.00 0.00 0.00 0.00
0.00 0.00 0.00 0.00 0.00 0.00 0.00 0.00 0.00 0.00 0.00 0.00 0.00 0.00 0.00 0.00 0.00 0.00 0.00 0.00 0.00 0.00 0.00 0.00 0.00 0.00 0.00 0.00 0.00 0.00 0.00 0.00 0.00 0.00 0.00 0.00 0.00 0.00 0.00 0.00 0.00 0.00 0.00 0.00
0.00 0.00 0.00 0.00 0.00 0.00 0.00 0.00 0.00 0.00 0.00 0.00 0.00 0.00 0.00 0.00 0.00 0.00 0.00 0.00 0.00 0.00 0.00 0.00 0.00 0.00 0.00 0.00 0.00 0.00 0.00 0.00 0.00 0.00 0.00 0.00 0.00 0.00 0.00 0.00 0.00 0.00 0.00 0.00
MSLP
1007.91 1007.77 1007.52 1007.21 1006.89 1006.61 1006.43 1006.38 1006.50 1006.80 1007.27 1007.90 1008.65 1009.48 1010.35 1011.23 1012.08 1012.88 1013.63 1014.31 1014.94 1015.52 1016.05 1016.54 1017.00 1017.41 1017.79 1018.12 1018.41 1018.67 1018.91 1019.13 1019.35 1019.59 1019.85 1020.12 1020.41 1020.70 1020.98 1021.24 1021.47 1021.67 1021.83 1021.98
1008.02 1007.89 1007.63 1007.27 1006.88 1006.53 1006.29 1006.23 1006.38 1006.75 1007.34 1008.12 1009.05 1010.05 1011.08 1012.08 1013.01 1013.87 1014.63 1015.30 1015.91 1016.46 1016.97 1017.45 1017.89 1018.31 1018.69 1019.01 1019.29 1019.51 1019.69 1019.85 1020.00 1020.16 1020.35 1020.57 1020.83 1021.11 1021.41 1021.69 1021.96 1022.20 1022.41 1022.58
1008.02 1007.94 1007.70 1007.35 1006.95 1006.59 1006.35 1006.30 1006.49 1006.94 1007.64 1008.55 1009.61 1010.76 1011.91 1013.01 1014.01 1014.90 1015.66 1016.31 1016.88 1017.38 1017.84 1018.28 1018.70 1019.09 1019.44 1019.75 1020.00 1020.18 1020.32 1020.43 1020.52 1020.62 1020.76 1020.95 1021.19 1021.47 1021.78 1022.10 1022.41 1022.70 1022.94 1023.14
1007.92 1007.91 1007.74 1007.45 1007.10 1006.78 1006.58 1006.57 1006.82 1007.34 1008.12 1009.13 1010.29 1011.53 1012.77 1013.93 1014.98 1015.89 1016.64 1017.27 1017.78 1018.23 1018.64 1019.03 1019.40 1019.76 1020.08 1020.36 1020.57 1020.73 1020.83 1020.90 1020.95 1021.01 1021.11 1021.27 1021.49 1021.77 1022.10 1022.45 1022.79 1023.11 1023.38 1023.61
1007.73 1007.81 1007.74 1007.56 1007.30 1007.08 1006.96 1007.03 1007.34 1007.92 1008.76 1009.82 1011.03 1012.32 1013.60 1014.80 1015.86 1016.77 1017.51 1018.10 1018.58 1018.99 1019.35 1019.68 1020.01 1020.32 1020.61 1020.86 1021.05 1021.18 1021.26 1021.30 1021.32 1021.35 1021.42 1021.56 1021.77 1022.04 1022.36 1022.72 1023.08 1023.42 1023.72 1023.96
1007.49 1007.66 1007.72 1007.67 1007.56 1007.47 1007.47 1007.63 1008.02 1008.64 1009.52 1010.59 1011.81 1013.10 1014.37 1015.56 1016.61 1017.50 1018.22 1018.79 1019.23 1019.60 1019.91 1020.21 1020.50 1020.78 1021.04 1021.27 1021.44 1021.56 1021.62 1021.65 1021.65 1021.67 1021.72 1021.83 1022.02 1022.27 1022.59 1022.94 1023.30 1023.65 1023.96 1024.22
1007.20 1007.48 1007.68 1007.79 1007.86 1007.94 1008.08 1008.36 1008.82 1009.49 1010.37 1011.42 1012.61 1013.85 1015.08 1016.21 1017.22 1018.07 1018.75 1019.28 1019.70 1020.03 1020.32 1020.58 1020.85 1021.10 1021.35 1021.56 1021.73 1021.85 1021.92 1021.94 1021.95 1021.96 1022.00 1022.10 1022.26 1022.50 1022.80 1023.14 1023.50 1023.85 1024.16 1024.43
1006.91 1007.29 1007.63 1007.93 1008.20 1008.45 1008.76 1009.16 1009.69 1010.40 1011.27 1012.28 1013.40 1014.55 1015.69 1016.74 1017.68 1018.46 1019.09 1019.58 1019.96 1020.26 1020.53 1020.77 1021.02 1021.27 1021.51 1021.73 1021.91 1022.04 1022.13 1022.17 1022.20 1022.22 1022.27 1022.36 1022.52 1022.75 1023.03 1023.36 1023.71 1024.05 1024.37 1024.64
1006.63 1007.11 1007.61 1008.09 1008.54 1008.99 1009.46 1009.98 1010.59 1011.32 1012.16 1013.11 1014.13 1015.17 1016.19 1017.13 1017.97 1018.67 1019.23 1019.67 1020.02 1020.29 1020.54 1020.78 1021.02 1021.26 1021.51 1021.75 1021.96 1022.12 1022.25 1022.33 1022.39 1022.45 1022.52 1022.63 1022.80 1023.02 1023.31 1023.63 1023.97 1024.32 1024.64 1024.92
1006.39 1006.96 1007.60 1008.25 1008.89 1009.51 1010.13 1010.76 1011.43 1012.16 1012.97 1013.84 1014.75 1015.67 1016.56 1017.38 1018.10 1018.71 1019.20 1019.59 1019.89 1020.15 1020.38 1020.61 1020.85 1021.11 1021.38 1021.65 1021.89 1022.10 1022.28 1022.42 1022.53 1022.63 1022.75 1022.89 1023.09 1023.33 1023.62 1023.95 1024.30 1024.65 1024.97 1025.26
1006.19 1006.86 1007.62 1008.41 1009.20 1009.96 1010.70 1011.41 1012.13 1012.86 1013.62 1014.41 1015.21 1016.01 1016.77 1017.47 1018.08 1018.60 1019.02 1019.36 1019.63 1019.87 1020.10 1020.33 1020.58 1020.86 1021.16 1021.46 1021.75 1022.02 1022.25 1022.45 1022.63 1022.79 1022.96 1023.15 1023.37 1023.64 1023.95 1024.29 1024.65 1025.01 1025.35 1025.63
1006.06 1006.81 1007.66 1008.56 1009.45 1010.32 1011.13 1011.90 1012.63 1013.35 1014.06 1014.77 1015.47 1016.16 1016.81 1017.41 1017.93 1018.38 1018.75 1019.05 1019.31 1019.54 1019.77 1020.02 1020.29 1020.59 1020.92 1021.26 1021.59 1021.91 1022.21 1022.47 1022.70 1022.92 1023.14 1023.37 1023.63 1023.93 1024.26 1024.62 1024.99 1025.36 1025.69 1025.98
1005.98 1006.79 1007.71 1008.68 1009.63 1010.55 1011.40 1012.18 1012.91 1013.60 1014.26 1014.90 1015.53 1016.13 1016.71 1017.23 1017.70 1018.11 1018.45 1018.75 1019.00 1019.24 1019.49 1019.75 1020.05 1020.38 1020.73 1021.11 1021.48 1021.84 1022.18 1022.49 1022.77 1023.03 1023.28 1023.55 1023.83 1024.15 1024.49 1024.86 1025.23 1025.60 1025.94 1026.22
1005.94 1006.80 1007.77 1008.76 1009.74 1010.67 1011.51 1012.28 1012.99 1013.64 1014.25 1014.85 1015.42 1015.98 1016.51 1017.00 1017.45 1017.85 1018.20 1018.50 1018.78 1019.05 1019.32 1019.61 1019.93 1020.28 1020.65 1021.05 1021.45 1021.83 1022.19 1022.52 1022.83 1023.11 1023.38 1023.65 1023.94 1024.26 1024.60 1024.96 1025.33 1025.69 1026.01 1026.28
1005.93 1006.84 1007.83 1008.83 1009.80 1010.70 1011.52 1012.25 1012.92 1013.53 1014.11 1014.67 1015.21 1015.75 1016.28 1016.77 1017.24 1017.66 1018.04 1018.38 1018.69 1018.99 1019.29 1019.60 1019.94 1020.30 1020.69 1021.09 1021.49 1021.88 1022.24 1022.57 1022.87 1023.15 1023.41 1023.68 1023.95 1024.25 1024.56 1024.90 1025.25 1025.59 1025.89 1026.14
1005.95 1006.90 1007.91 1008.90 1009.84 1010.70 1011.47 1012.16 1012.78 1013.36 1013.91 1014.45 1014.99 1015.54 1016.08 1016.61 1017.12 1017.58 1018.01 1018.39 1018.75 1019.08 1019.40 1019.73 1020.08 1020.44 1020.82 1021.20 1021.58 1021.95 1022.29 1022.60 1022.88 1023.13 1023.37 1023.60 1023.84 1024.10 1024.38 1024.69 1025.00 1025.31 1025.59 1025.82
1005.98 1006.98 1008.01 1008.99 1009.90 1010.72 1011.44 1012.08 1012.66 1013.20 1013.73 1014.27 1014.83 1015.40 1015.98 1016.56 1017.11 1017.63 1018.11 1018.53 1018.92 1019.28 1019.61 1019.94 1020.28 1020.62 1020.97 1021.32 1021.67 1022.00 1022.30 1022.58 1022.82 1023.04 1023.24 1023.43 1023.63 1023.85 1024.09 1024.35 1024.63 1024.91 1025.17 1025.38
1006.01 1007.08 1008.13 1009.12 1010.01 1010.79 1011.46 1012.06 1012.61 1013.13 1013.65 1014.20 1014.77 1015.38 1016.00 1016.62 1017.22 1017.78 1018.30 1018.76 1019.16 1019.53 1019.85 1020.16 1020.46 1020.77 1021.07 1021.37 1021.67 1021.96 1022.22 1022.46 1022.66 1022.85 1023.01 1023.17 1023.33 1023.52 1023.72 1023.95 1024.20 1024.45 1024.69 1024.90
1006.06 1007.20 1008.29 1009.28 1010.16 1010.92 1011.56 1012.13 1012.65 1013.15 1013.68 1014.23 1014.82 1015.46 1016.12 1016.77 1017.41 1018.00 1018.54 1019.01 1019.41 1019.75 1020.05 1020.32 1020.57 1020.82 1021.07 1021.31 1021.56 1021.80 1022.02 1022.22 1022.40 1022.56 1022.70 1022.85 1023.00 1023.16 1023.34 1023.55 1023.77 1024.01 1024.24 1024.45
1006.12 1007.33 1008.46 1009.47 1010.35 1011.09 1011.72 1012.26 1012.77 1013.26 1013.78 1014.34 1014.95 1015.60 1016.28 1016.96 1017.61 1018.22 1018.76 1019.22 1019.60 1019.91 1020.17 1020.38 1020.57 1020.76 1020.94 1021.13 1021.32 1021.51 1021.70 1021.88 1022.04 1022.20 1022.34 1022.49 1022.64 1022.81 1022.99 1023.19 1023.41 1023.63 1023.85 1024.06
1006.20 1007.47 1008.63 1009.66 1010.53 1011.27 1011.88 1012.41 1012.90 1013.38 1013.90 1014.46 1015.08 1015.74 1016.43 1017.12 1017.77 1018.38 1018.90 1019.35 1019.70 1019.97 1020.18 1020.34 1020.47 1020.59 1020.71 1020.84 1020.98 1021.14 1021.30 1021.47 1021.64 1021.80 1021.97 1022.13 1022.30 1022.48 1022.68 1022.89 1023.11 1023.33 1023.55 1023.76
1006.31 1007.60 1008.78 1009.81 1010.68 1011.39 1011.99 1012.51 1012.98 1013.46 1013.97 1014.53 1015.15 1015.81 1016.50 1017.19 1017.84 1018.44 1018.95 1019.37 1019.70 1019.93 1020.10 1020.21 1020.29 1020.35 1020.42 1020.50 1020.61 1020.74 1020.89 1021.05 1021.22 1021.41 1021.60 1021.79 1021.99 1022.20 1022.41 1022.64 1022.86 1023.09 1023.31 1023.51
1006.44 1007.72 1008.88 1009.89 1010.73 1011.42 1012.00 1012.50 1012.97 1013.44 1013.94 1014.49 1015.11 1015.77 1016.45 1017.13 1017.78 1018.37 1018.88 1019.28 1019.59 1019.81 1019.95 1020.03 1020.07 1020.10 1020.13 1020.18 1020.26 1020.37 1020.51 1020.67 1020.85 1021.05 1021.26 1021.48 1021.71 1021.94 1022.17 1022.41 1022.64 1022.87 1023.08 1023.28
1006.56 1007.80 1008.91 1009.87 1010.67 1011.33 1011.89 1012.37 1012.82 1013.28 1013.77 1014.32 1014.92 1015.57 1016.25 1016.93 1017.58 1018.17 1018.68 1019.09 1019.40 1019.62 1019.76 1019.83 1019.87 1019.88 1019.90 1019.93 1019.99 1020.08 1020.20 1020.36 1020.54 1020.75 1020.97 1021.20 1021.44 1021.69 1021.93 1022.17 1022.41 1022.63 1022.83 1023.02
1006.66 1007.81 1008.84 1009.73 1010.49 1011.11 1011.64 1012.10 1012.53 1012.98 1013.47 1014.01 1014.60 1015.25 1015.92 1016.59 1017.24 1017.84 1018.36 1018.79 1019.12 1019.36 1019.52 1019.62 1019.67 1019.69 1019.71 1019.74 1019.79 1019.87 1019.98 1020.12 1020.29 1020.49 1020.71 1020.94 1021.17 1021.42 1021.66 1021.90 1022.12 1022.34 1022.53 1022.71
1006.67 1007.71 1008.66 1009.48 1010.18 1010.77 1011.27 1011.72 1012.15 1012.59 1013.07 1013.60 1014.18 1014.81 1015.47 1016.14 1016.78 1017.39 1017.92 1018.38 1018.75 1019.03 1019.23 1019.36 1019.45 1019.50 1019.54 1019.58 1019.63 1019.70 1019.80 1019.93 1020.08 1020.25 1020.45 1020.66 1020.88 1021.11 1021.34 1021.56 1021.78 1021.98 1022.17 1022.35
1006.56 1007.49 1008.34 1009.10 1009.76 1010.32 1010.81 1011.26 1011.70 1012.14 1012.61 1013.13 1013.70 1014.31 1014.95 1015.59 1016.23 1016.83 1017.37 1017.85 1018.25 1018.58 1018.83 1019.02 1019.15 1019.25 1019.32 1019.39 1019.45 1019.52 1019.61 1019.72 1019.85 1019.99 1020.16 1020.34 1020.54 1020.75 1020.96 1021.17 1021.38 1021.58 1021.77 1021.95
Thickness
5682 5689 5686 5687 5690 5693 5688 5682 5668 5658 5650 5641 5632 5621 5611 5603 5597 5591 5586 5582 5579 5576 5573 5572 5572 5573 5573 5573 5574 5575 5576 5576 5575 5574 5575 5575 5576 5577 5578 5578 5578 5578 5578 5577
5679 5689 5692 5689 5690 5688 5686 5683 5672 5661 5645 5642 5630 5618 5607 5598 5591 5585 5579 5576 5573 5569 5567 5565 5564 5564 5564 5564 5564 5565 5566 5565 5564 5565 5565 5565 5565 5566 5566 5566 5567 5567 5566 5565
5666 5683 5685 5673 5682 5683 5681 5680 5671 5656 5643 5633 5620 5611 5602 5594 5587 5580 5574 5570 5566 5563 5560 5558 5556 5556 5556 5556 5556 5557 5557 5556 5556 5556 5556 5556 5557 5556 5556 5557 5556 5555 5554 5552
5667 5669 5651 5674 5693 5687 5678 5672 5668 5656 5642 5631 5617 5607 5598 5590 5582 5575 5569 5564 5559 5556 5553 5551 5549 5548 5548 5548 5548 5548 5548 5548 5548 5548 5548 5547 5547 5548 5547 5547 5546 5546 5544 5542
5665 5658 5662 5674 5682 5681 5671 5658 5660 5647 5633 5621 5610 5598 5586 5582 5577 5570 5563 5558 5553 5550 5547 5545 5543 5542 5541 5541 5541 5541 5540 5541 5541 5541 5541 5540 5540 5540 5539 5539 5538 5537 5536 5534
5666 5651 5645 5660 5680 5687 5673 5646 5651 5641 5627 5616 5609 5597 5583 5575 5569 5562 5557 5551 5547 5544 5541 5539 5537 5536 5535 5535 5535 5534 5534 5535 5535 5535 5534 5533 5533 5533 5533 5533 5532 5531 5529 5527
5665 5658 5657 5668 5681 5682 5652 5639 5646 5638 5626 5616 5611 5603 5586 5573 5564 5557 5552 5546 5542 5539 5536 5533 5532 5531 5531 5530 5530 5530 5530 5529 5529 5528 5528 5527 5527 5527 5527 5526 5525 5524 5521 5519
5666 5654 5647 5673 5676 5661 5650 5653 5645 5634 5623 5612 5602 5591 5579 5568 5559 5552 5547 5542 5538 5535 5531 5529 5528 5527 5526 5525 5525 5525 5524 5523 5523 5524 5525 5523 5522 5521 5520 5520 5518 5516 5515 5512
5666 5660 5666 5671 5667 5663 5659 5648 5639 5629 5617 5606 5594 5583 5573 5563 5555 5549 5544 5539 5535 5531 5527 5525 5524 5523 5522 5521 5521 5520 5519 5518 5518 5519 5518 5517 5517 5515 5515 5515 5513 5511 5510 5507
5673 5666 5669 5668 5665 5660 5653 5643 5635 5624 5613 5602 5590 5579 5569 5560 5552 5546 5541 5536 5533 5529 5525 5522 5521 5520 5519 5518 5517 5516 5514 5514 5513 5513 5512 5511 5510 5509 5508 5508 5507 5507 5505 5503
5671 5667 5665 5661 5657 5652 5645 5637 5628 5618 5608 5597 5586 5575 5566 5557 5550 5545 5540 5535 5531 5527 5524 5521 5519 5517 5516 5514 5513 5511 5510 5510 5509 5507 5505 5503 5500 5497 5497 5493 5494 5497 5497 5496
5672 5672 5665 5654 5652 5648 5638 5630 5621 5612 5601 5592 5583 5573 5564 5556 5550 5544 5538 5533 5529 5525 5522 5519 5517 5515 5513 5511 5510 5508 5506 5506 5505 5503 5501 5499 5496 5491 5486 5486 5485 5486 5485 5485
5682 5677 5667 5657 5650 5643 5634 5626 5617 5609 5599 5589 5580 5572 5564 5556 5549 5543 5537 5533 5528 5524 5520 5517 5514 5512 5510 5509 5507 5505 5503 5502 5502 5500 5498 5497 5495 5491 5486 5481 5479 5479 5478 5478
5679 5670 5658 5651 5644 5638 5631 5623 5615 5606 5597 5588 5580 5571 5563 5556 5549 5543 5537 5532 5528 5523 5519 5515 5512 5509 5507 5506 5504 5502 5500 5499 5498 5497 5496 5494 5493 5491 5488 5485 5481 5478 5474 5473
5673 5667 5657 5650 5642 5634 5627 5619 5610 5602 5594 5586 5578 5571 5563 5555 5549 5543 5539 5534 5529 5524 5519 5515 5511 5508 5507 5504 5502 5500 5499 5498 5496 5496 5495 5493 5492 5490 5488 5486 5483 5479 5476 5473
5668 5662 5654 5646 5638 5631 5624 5617 5609 5601 5593 5586 5578 5571 5564 5558 5551 5545 5540 5535 5529 5524 5520 5516 5512 5509 5506 5504 5501 5499 5497 5494 5494 5494 5494 5492 5490 5489 5487 5485 5483 5480 5478 5478
5662 5655 5649 5642 5636 5631 5624 5617 5610 5603 5595 5587 5580 5573 5567 5559 5552 5546 5541 5536 5531 5525 5521 5517 5513 5511 5507 5505 5503 5501 5499 5495 5492 5493 5493 5492 5490 5489 5487 5486 5484 5481 5480 5478
5667 5660 5654 5647 5640 5633 5626 5619 5612 5604 5596 5590 5583 5576 5568 5561 5555 5549 5543 5538 5532 5526 5522 5519 5515 5512 5509 5507 5505 5504 5502 5500 5498 5497 5495 5493 5491 5490 5489 5487 5486 5484 5482 5481
5666 5661 5654 5648 5643 5636 5629 5621 5614 5607 5600 5593 5586 5578 5571 5565 5559 5552 5546 5540 5534 5528 5524 5521 5515 5514 5511 5509 5507 5507 5506 5505 5502 5500 5497 5492 5493 5492 5491 5490 5489 5487 5487 5486
5667 5661 5655 5650 5644 5638 5630 5624 5617 5609 5603 5596 5588 5581 5574 5568 5562 5556 5549 5544 5539 5534 5528 5523 5519 5517 5516 5514 5510 5513 5511 5509 5506 5504 5501 5499 5497 5495 5494 5493 5492 5491 5490 5489
5666 5661 5656 5651 5645 5639 5633 5626 5619 5612 5606 5599 5592 5584 5578 5572 5567 5560 5554 5549 5544 5539 5533 5526 5525 5523 5521 5519 5514 5517 5517 5515 5512 5509 5506 5504 5502 5500 5499 5498 5497 5496 5494 5493
5667 5662 5657 5651 5645 5639 5634 5628 5621 5615 5608 5602 5596 5589 5583 5576 5571 5566 5561 5557 5550 5543 5539 5535 5533 5530 5527 5524 5524 5525 5524 5521 5518 5515 5513 5510 5508 5506 5504 5503 5501 5500 5499 5498
5668 5663 5658 5652 5646 5640 5634 5629 5624 5618 5611 5606 5600 5594 5587 5582 5579 5573 5567 5563 5557 5549 5548 5546 5540 5534 5531 5529 5531 5532 5531 5527 5525 5522 5520 5517 5515 5512 5510 5508 5507 5506 5504 5502
5668 5663 5658 5653 5647 5640 5634 5631 5626 5621 5615 5611 5605 5599 5594 5588 5585 5582 5578 5569 5563 5555 5555 5548 5543 5540 5535 5537 5538 5539 5538 5534 5532 5530 5528 5525 5523 5520 5518 5515 5513 5511 5509 5506
5669 5664 5659 5653 5647 5642 5637 5634 5628 5623 5618 5615 5610 5604 5600 5597 5593 5590 5584 5576 5567 5561 5558 5550 5548 5544 5544 5545 5546 5547 5546 5543 5541 5538 5535 5532 5530 5528 5525 5522 5519 5517 5515 5512
5668 5664 5659 5655 5652 5648 5643 5638 5633 5628 5624 5620 5615 5610 5607 5603 5600 5596 5589 5581 5574 5568 5567 5559 5555 5551 5552 5553 5554 5554 5552 5548 5545 5542 5541 5538 5536 5534 5531 5528 5525 5522 5520 5518
5667 5664 5659 5657 5654 5653 5649 5644 5640 5635 5632 5627 5622 5617 5614 5610 5606 5601 5595 5589 5582 5576 5575 5571 5567 5563 5561 5561 5562 5561 5559 5556 5552 5549 5546 5544 5541 5539 5536 5533 5530 5528 5525 5522